QPF
0.00 0.00 0.01 0.02 0.02 0.02 0.03 0.03 0.04 0.02 0.01 0.01 0.00 0.00 0.01 0.01 0.01 0.02 0.02 0.01 0.01 0.02 0.03 0.05 0.05 0.04 0.05 0.06 0.08 0.08 0.13 0.15 0.11 0.10 0.09 0.10 0.12 0.10 0.10 0.12 0.15 0.15 0.10 0.06 0.04 0.04 0.06 0.07 0.07
0.00 0.00 0.01 0.02 0.02 0.03 0.02 0.02 0.04 0.04 0.02 0.01 0.00 0.01 0.01 0.00 0.01 0.01 0.01 0.02 0.01 0.01 0.02 0.03 0.05 0.05 0.05 0.06 0.09 0.12 0.15 0.12 0.09 0.08 0.07 0.06 0.06 0.06 0.07 0.08 0.13 0.18 0.13 0.06 0.05 0.04 0.05 0.06 0.05
0.00 0.01 0.01 0.01 0.02 0.04 0.04 0.03 0.02 0.02 0.01 0.01 0.01 0.02 0.01 0.01 0.01 0.01 0.01 0.01 0.01 0.01 0.02 0.04 0.06 0.06 0.05 0.06 0.08 0.10 0.09 0.09 0.09 0.09 0.08 0.07 0.05 0.05 0.06 0.07 0.09 0.08 0.08 0.05 0.04 0.03 0.05 0.05 0.05
0.00 0.00 0.00 0.01 0.03 0.03 0.03 0.02 0.01 0.01 0.02 0.01 0.01 0.01 0.01 0.02 0.01 0.01 0.01 0.01 0.01 0.02 0.03 0.06 0.05 0.04 0.05 0.06 0.06 0.05 0.06 0.09 0.09 0.07 0.06 0.06 0.05 0.06 0.06 0.06 0.10 0.07 0.03 0.03 0.03 0.02 0.03 0.04 0.05
0.00 0.00 0.00 0.01 0.02 0.01 0.02 0.01 0.02 0.03 0.03 0.01 0.01 0.01 0.01 0.02 0.01 0.01 0.01 0.01 0.01 0.01 0.01 0.02 0.01 0.01 0.03 0.04 0.06 0.05 0.05 0.09 0.10 0.07 0.06 0.05 0.05 0.05 0.06 0.06 0.07 0.06 0.04 0.03 0.03 0.03 0.03 0.04 0.04
0.00 0.00 0.01 0.01 0.01 0.01 0.02 0.02 0.03 0.02 0.02 0.01 0.01 0.01 0.02 0.01 0.01 0.01 0.01 0.01 0.01 0.01 0.02 0.02 0.01 0.01 0.02 0.03 0.05 0.06 0.08 0.10 0.11 0.08 0.06 0.06 0.06 0.06 0.06 0.07 0.05 0.06 0.05 0.03 0.04 0.03 0.03 0.04 0.05
0.00 0.01 0.02 0.02 0.01 0.01 0.02 0.03 0.04 0.03 0.02 0.01 0.01 0.01 0.02 0.02 0.02 0.01 0.01 0.01 0.00 0.01 0.01 0.02 0.02 0.02 0.02 0.04 0.06 0.08 0.12 0.11 0.09 0.06 0.06 0.06 0.06 0.05 0.06 0.07 0.07 0.06 0.06 0.05 0.03 0.03 0.04 0.04 0.05
0.00 0.01 0.01 0.00 0.00 0.01 0.01 0.02 0.03 0.03 0.02 0.02 0.01 0.02 0.05 0.05 0.03 0.02 0.00 0.00 0.00 0.00 0.01 0.02 0.02 0.03 0.04 0.06 0.06 0.08 0.12 0.09 0.07 0.05 0.05 0.05 0.06 0.05 0.05 0.05 0.07 0.08 0.09 0.07 0.06 0.05 0.05 0.07 0.08
0.01 0.01 0.01 0.00 0.00 0.00 0.00 0.01 0.02 0.03 0.02 0.02 0.02 0.03 0.05 0.03 0.02 0.02 0.01 0.01 0.01 0.01 0.01 0.02 0.02 0.04 0.05 0.07 0.08 0.10 0.13 0.08 0.07 0.06 0.05 0.05 0.05 0.05 0.06 0.03 0.04 0.06 0.07 0.10 0.10 0.08 0.08 0.11 0.12
0.01 0.01 0.00 0.00 0.00 0.00 0.00 0.00 0.00 0.01 0.01 0.02 0.02 0.02 0.02 0.02 0.02 0.02 0.02 0.02 0.02 0.01 0.01 0.01 0.01 0.02 0.04 0.05 0.10 0.13 0.11 0.08 0.07 0.07 0.07 0.06 0.05 0.05 0.07 0.07 0.05 0.05 0.04 0.06 0.10 0.12 0.13 0.14 0.15
0.01 0.00 0.00 0.00 0.00 0.00 0.00 0.00 0.00 0.00 0.00 0.01 0.03 0.05 0.06 0.05 0.05 0.06 0.05 0.03 0.02 0.02 0.01 0.02 0.03 0.03 0.04 0.04 0.12 0.13 0.10 0.07 0.07 0.06 0.07 0.06 0.05 0.05 0.08 0.10 0.08 0.08 0.07 0.07 0.08 0.08 0.10 0.13 0.19
0.01 0.00 0.00 0.00 0.00 0.00 0.00 0.00 0.00 0.00 0.01 0.00 0.01 0.02 0.03 0.04 0.07 0.08 0.05 0.04 0.04 0.04 0.03 0.03 0.02 0.03 0.04 0.04 0.10 0.12 0.08 0.05 0.05 0.05 0.06 0.07 0.06 0.06 0.06 0.07 0.09 0.10 0.11 0.10 0.09 0.12 0.14 0.12 0.13
0.00 0.00 0.00 0.00 0.00 0.00 0.00 0.00 0.00 0.00 0.00 0.00 0.01 0.01 0.01 0.01 0.02 0.04 0.04 0.03 0.05 0.06 0.06 0.06 0.04 0.03 0.04 0.04 0.06 0.09 0.06 0.04 0.03 0.03 0.04 0.06 0.07 0.06 0.06 0.06 0.06 0.09 0.10 0.10 0.08 0.11 0.19 0.13 0.08
0.00 0.00 0.00 0.00 0.00 0.00 0.00 0.00 0.00 0.01 0.01 0.01 0.00 0.00 0.00 0.00 0.01 0.02 0.04 0.03 0.03 0.04 0.06 0.07 0.05 0.03 0.03 0.03 0.05 0.08 0.10 0.12 0.10 0.10 0.07 0.07 0.09 0.06 0.06 0.05 0.05 0.06 0.06 0.06 0.07 0.11 0.15 0.10 0.10
0.00 0.00 0.00 0.00 0.00 0.00 0.00 0.00 0.00 0.01 0.01 0.01 0.00 0.00 0.00 0.01 0.01 0.02 0.04 0.03 0.03 0.03 0.03 0.03 0.03 0.03 0.03 0.03 0.04 0.06 0.06 0.07 0.07 0.06 0.05 0.05 0.05 0.04 0.05 0.06 0.06 0.06 0.05 0.05 0.07 0.09 0.09 0.10 0.13
0.00 0.00 0.00 0.00 0.00 0.00 0.00 0.01 0.00 0.01 0.01 0.01 0.00 0.00 0.01 0.01 0.01 0.01 0.02 0.03 0.04 0.05 0.04 0.03 0.02 0.02 0.02 0.02 0.03 0.04 0.04 0.05 0.06 0.05 0.04 0.04 0.04 0.04 0.05 0.05 0.05 0.05 0.06 0.07 0.06 0.05 0.04 0.06 0.07
0.00 0.00 0.00 0.00 0.00 0.00 0.00 0.01 0.00 0.00 0.01 0.00 0.00 0.00 0.00 0.01 0.01 0.02 0.02 0.02 0.03 0.03 0.02 0.03 0.02 0.02 0.02 0.02 0.03 0.04 0.05 0.06 0.05 0.04 0.04 0.04 0.03 0.03 0.04 0.05 0.05 0.04 0.03 0.04 0.04 0.03 0.04 0.04 0.04
0.00 0.00 0.00 0.01 0.00 0.00 0.01 0.00 0.00 0.00 0.00 0.00 0.00 0.00 0.00 0.01 0.01 0.01 0.01 0.01 0.01 0.01 0.01 0.02 0.02 0.03 0.03 0.04 0.05 0.06 0.05 0.05 0.05 0.04 0.04 0.03 0.03 0.03 0.03 0.03 0.03 0.02 0.03 0.04 0.04 0.04 0.03 0.04 0.05
0.00 0.00 0.00 0.01 0.00 0.00 0.00 0.00 0.00 0.00 0.01 0.01 0.00 0.00 0.00 0.00 0.00 0.01 0.01 0.02 0.01 0.00 0.01 0.02 0.03 0.03 0.04 0.04 0.06 0.08 0.07 0.05 0.04 0.03 0.03 0.04 0.04 0.04 0.03 0.03 0.03 0.02 0.02 0.04 0.04 0.03 0.03 0.04 0.05
0.00 0.00 0.01 0.01 0.00 0.00 0.00 0.00 0.00 0.00 0.01 0.01 0.00 0.00 0.00 0.00 0.00 0.01 0.01 0.02 0.02 0.02 0.01 0.02 0.02 0.02 0.04 0.04 0.05 0.07 0.07 0.05 0.03 0.03 0.03 0.04 0.05 0.05 0.03 0.03 0.03 0.02 0.03 0.03 0.03 0.03 0.03 0.04 0.04
0.00 0.00 0.01 0.00 0.00 0.00 0.00 0.01 0.00 0.00 0.01 0.00 0.01 0.01 0.01 0.00 0.00 0.00 0.01 0.03 0.03 0.02 0.01 0.01 0.02 0.02 0.03 0.03 0.03 0.03 0.04 0.04 0.04 0.04 0.04 0.04 0.03 0.03 0.03 0.03 0.03 0.03 0.03 0.03 0.05 0.04 0.04 0.04 0.04
0.00 0.00 0.00 0.00 0.00 0.01 0.00 0.00 0.00 0.00 0.01 0.01 0.01 0.01 0.01 0.00 0.00 0.00 0.01 0.02 0.02 0.01 0.00 0.00 0.01 0.01 0.02 0.04 0.03 0.04 0.05 0.05 0.04 0.04 0.02 0.02 0.02 0.01 0.02 0.02 0.02 0.03 0.02 0.03 0.04 0.03 0.03 0.03 0.03
0.00 0.00 0.00 0.00 0.00 0.00 0.00 0.00 0.00 0.00 0.01 0.01 0.01 0.00 0.00 0.00 0.00 0.00 0.01 0.02 0.01 0.01 0.00 0.01 0.01 0.01 0.01 0.02 0.05 0.05 0.04 0.04 0.03 0.02 0.02 0.03 0.03 0.02 0.02 0.02 0.02 0.04 0.04 0.03 0.02 0.03 0.03 0.03 0.04
0.00 0.00 0.00 0.00 0.00 0.00 0.00 0.00 0.00 0.00 0.01 0.01 0.01 0.01 0.00 0.00 0.00 0.00 0.00 0.00 0.00 0.00 0.00 0.01 0.00 0.00 0.00 0.01 0.04 0.06 0.05 0.04 0.03 0.03 0.03 0.04 0.04 0.03 0.03 0.02 0.04 0.05 0.05 0.04 0.03 0.03 0.02 0.03 0.03
0.00 0.00 0.01 0.00 0.00 0.00 0.00 0.00 0.00 0.00 0.00 0.01 0.01 0.01 0.01 0.01 0.00 0.00 0.00 0.00 0.00 0.00 0.00 0.01 0.01 0.00 0.00 0.02 0.04 0.06 0.09 0.05 0.03 0.02 0.03 0.03 0.03 0.04 0.06 0.05 0.06 0.05 0.04 0.03 0.02 0.02 0.02 0.02 0.03
0.00 0.00 0.01 0.01 0.00 0.00 0.00 0.00 0.00 0.00 0.00 0.00 0.00 0.01 0.00 0.01 0.01 0.01 0.00 0.00 0.01 0.01 0.01 0.01 0.01 0.01 0.01 0.02 0.03 0.05 0.08 0.04 0.02 0.02 0.02 0.02 0.02 0.02 0.04 0.06 0.05 0.03 0.03 0.02 0.02 0.02 0.02 0.02 0.03
0.00 0.00 0.00 0.00 0.00 0.00 0.00 0.00 0.00 0.00 0.00 0.00 0.00 0.01 0.00 0.00 0.00 0.00 0.00 0.01 0.01 0.01 0.01 0.00 0.00 0.01 0.02 0.02 0.04 0.05 0.04 0.03 0.02 0.02 0.02 0.02 0.02 0.03 0.03 0.03 0.03 0.02 0.01 0.02 0.01 0.02 0.02 0.02 0.02
0.00 0.00 0.00 0.01 0.01 0.00 0.00 0.00 0.00 0.00 0.00 0.00 0.00 0.00 0.00 0.00 0.00 0.00 0.01 0.01 0.01 0.01 0.01 0.00 0.00 0.01 0.02 0.03 0.02 0.02 0.02 0.03 0.02 0.02 0.02 0.02 0.02 0.02 0.02 0.02 0.02 0.02 0.02 0.02 0.02 0.03 0.02 0.02 0.02
0.00 0.00 0.00 0.01 0.01 0.01 0.01 0.00 0.00 0.00 0.00 0.00 0.00 0.00 0.00 0.00 0.00 0.00 0.00 0.00 0.00 0.00 0.00 0.01 0.01 0.01 0.02 0.02 0.02 0.02 0.03 0.03 0.03 0.03 0.02 0.01 0.02 0.01 0.01 0.02 0.03 0.03 0.02 0.02 0.02 0.03 0.03 0.02 0.02
0.00 0.00 0.00 0.01 0.01 0.01 0.01 0.00 0.00 0.00 0.00 0.00 0.00 0.00 0.00 0.00 0.00 0.00 0.00 0.00 0.00 0.00 0.00 0.00 0.01 0.01 0.01 0.02 0.02 0.02 0.02 0.02 0.02 0.01 0.02 0.02 0.02 0.01 0.01 0.01 0.02 0.02 0.02 0.02 0.01 0.01 0.02 0.02 0.02
MSLP
1011.52 1012.07 1012.60 1013.04 1013.27 1013.26 1012.99 1012.53 1011.95 1011.36 1010.84 1010.47 1010.25 1010.15 1010.11 1010.06 1009.94 1009.72 1009.43 1009.13 1008.88 1008.75 1008.79 1008.99 1009.31 1009.66 1009.98 1010.20 1010.29 1010.28 1010.21 1010.16 1010.20 1010.37 1010.67 1011.06 1011.49 1011.88 1012.19 1012.40 1012.52 1012.60 1012.69 1012.85 1013.10 1013.42 1013.80 1014.16 1014.46
1011.56 1012.14 1012.68 1013.08 1013.26 1013.17 1012.83 1012.29 1011.65 1011.00 1010.43 1010.01 1009.75 1009.60 1009.52 1009.44 1009.31 1009.11 1008.87 1008.64 1008.50 1008.50 1008.66 1008.98 1009.40 1009.84 1010.22 1010.49 1010.62 1010.63 1010.58 1010.54 1010.58 1010.73 1010.99 1011.33 1011.71 1012.05 1012.32 1012.51 1012.64 1012.76 1012.91 1013.14 1013.45 1013.82 1014.22 1014.57 1014.83
1011.68 1012.25 1012.76 1013.09 1013.19 1013.02 1012.60 1012.00 1011.32 1010.64 1010.06 1009.62 1009.33 1009.15 1009.03 1008.91 1008.75 1008.55 1008.34 1008.18 1008.13 1008.24 1008.52 1008.96 1009.48 1010.01 1010.46 1010.77 1010.94 1010.98 1010.95 1010.92 1010.96 1011.09 1011.32 1011.63 1011.95 1012.25 1012.50 1012.68 1012.83 1013.00 1013.21 1013.51 1013.88 1014.30 1014.71 1015.05 1015.27
1011.87 1012.41 1012.83 1013.07 1013.06 1012.80 1012.31 1011.67 1010.98 1010.31 1009.76 1009.34 1009.05 1008.86 1008.71 1008.55 1008.36 1008.15 1007.96 1007.84 1007.86 1008.06 1008.43 1008.96 1009.56 1010.15 1010.65 1011.00 1011.20 1011.26 1011.26 1011.25 1011.30 1011.43 1011.66 1011.94 1012.24 1012.52 1012.76 1012.95 1013.13 1013.34 1013.61 1013.97 1014.39 1014.84 1015.26 1015.58 1015.76
1012.12 1012.57 1012.88 1012.99 1012.86 1012.50 1011.96 1011.30 1010.62 1010.01 1009.51 1009.15 1008.90 1008.72 1008.57 1008.40 1008.19 1007.97 1007.78 1007.69 1007.75 1008.00 1008.44 1009.01 1009.65 1010.26 1010.77 1011.14 1011.35 1011.43 1011.45 1011.48 1011.56 1011.72 1011.97 1012.27 1012.58 1012.87 1013.11 1013.32 1013.53 1013.78 1014.10 1014.49 1014.94 1015.41 1015.82 1016.11 1016.24
1012.36 1012.70 1012.87 1012.83 1012.57 1012.11 1011.52 1010.87 1010.24 1009.71 1009.30 1009.03 1008.85 1008.73 1008.60 1008.44 1008.23 1008.01 1007.83 1007.75 1007.84 1008.10 1008.55 1009.12 1009.74 1010.33 1010.82 1011.16 1011.36 1011.46 1011.51 1011.58 1011.71 1011.94 1012.24 1012.59 1012.94 1013.26 1013.54 1013.78 1014.01 1014.29 1014.62 1015.02 1015.47 1015.92 1016.30 1016.55 1016.65
1012.52 1012.72 1012.73 1012.54 1012.15 1011.61 1010.98 1010.35 1009.79 1009.36 1009.07 1008.91 1008.84 1008.80 1008.73 1008.61 1008.43 1008.23 1008.06 1008.00 1008.08 1008.34 1008.75 1009.28 1009.84 1010.37 1010.79 1011.09 1011.26 1011.36 1011.44 1011.56 1011.76 1012.06 1012.45 1012.87 1013.29 1013.66 1013.98 1014.25 1014.50 1014.77 1015.09 1015.47 1015.88 1016.28 1016.61 1016.82 1016.88
1012.55 1012.60 1012.45 1012.10 1011.59 1010.98 1010.34 1009.75 1009.27 1008.95 1008.79 1008.76 1008.80 1008.86 1008.87 1008.82 1008.69 1008.53 1008.40 1008.35 1008.42 1008.65 1009.02 1009.48 1009.96 1010.39 1010.73 1010.96 1011.09 1011.18 1011.28 1011.45 1011.73 1012.12 1012.59 1013.09 1013.58 1014.02 1014.38 1014.67 1014.92 1015.18 1015.46 1015.79 1016.13 1016.46 1016.73 1016.88 1016.90
1012.43 1012.32 1012.01 1011.53 1010.93 1010.27 1009.62 1009.08 1008.68 1008.48 1008.44 1008.53 1008.69 1008.85 1008.96 1008.98 1008.93 1008.83 1008.74 1008.71 1008.79 1008.99 1009.31 1009.69 1010.08 1010.42 1010.67 1010.83 1010.92 1010.99 1011.11 1011.32 1011.66 1012.12 1012.66 1013.24 1013.79 1014.28 1014.67 1014.98 1015.23 1015.45 1015.69 1015.94 1016.21 1016.46 1016.65 1016.75 1016.74
1012.15 1011.90 1011.46 1010.87 1010.19 1009.50 1008.87 1008.38 1008.07 1007.96 1008.03 1008.23 1008.49 1008.74 1008.94 1009.05 1009.07 1009.03 1008.99 1009.00 1009.09 1009.28 1009.56 1009.88 1010.20 1010.46 1010.64 1010.75 1010.80 1010.86 1010.99 1011.22 1011.59 1012.09 1012.68 1013.30 1013.90 1014.42 1014.84 1015.15 1015.39 1015.59 1015.77 1015.97 1016.16 1016.33 1016.45 1016.50 1016.46
1011.79 1011.41 1010.86 1010.19 1009.47 1008.77 1008.17 1007.73 1007.49 1007.46 1007.61 1007.88 1008.22 1008.54 1008.80 1008.97 1009.06 1009.08 1009.10 1009.15 1009.26 1009.46 1009.73 1010.02 1010.30 1010.52 1010.67 1010.75 1010.79 1010.84 1010.96 1011.20 1011.57 1012.07 1012.67 1013.30 1013.90 1014.43 1014.87 1015.19 1015.43 1015.61 1015.77 1015.91 1016.05 1016.16 1016.23 1016.23 1016.16
1011.41 1010.93 1010.29 1009.57 1008.82 1008.13 1007.57 1007.18 1007.00 1007.03 1007.23 1007.54 1007.91 1008.27 1008.57 1008.78 1008.90 1008.97 1009.03 1009.12 1009.26 1009.48 1009.76 1010.06 1010.34 1010.58 1010.73 1010.82 1010.87 1010.93 1011.04 1011.26 1011.61 1012.08 1012.63 1013.23 1013.82 1014.35 1014.78 1015.13 1015.38 1015.57 1015.73 1015.86 1015.96 1016.04 1016.07 1016.04 1015.95
1011.08 1010.53 1009.84 1009.08 1008.34 1007.67 1007.15 1006.80 1006.66 1006.72 1006.94 1007.27 1007.63 1007.98 1008.28 1008.49 1008.63 1008.72 1008.80 1008.91 1009.08 1009.33 1009.64 1009.98 1010.31 1010.59 1010.80 1010.93 1011.02 1011.10 1011.21 1011.40 1011.70 1012.10 1012.59 1013.13 1013.67 1014.18 1014.63 1014.99 1015.28 1015.51 1015.70 1015.84 1015.95 1016.02 1016.04 1015.99 1015.89
1010.87 1010.26 1009.54 1008.79 1008.06 1007.42 1006.93 1006.63 1006.51 1006.58 1006.78 1007.08 1007.42 1007.74 1008.00 1008.18 1008.30 1008.37 1008.44 1008.56 1008.75 1009.02 1009.37 1009.76 1010.16 1010.52 1010.82 1011.04 1011.19 1011.31 1011.43 1011.59 1011.83 1012.15 1012.56 1013.02 1013.50 1013.98 1014.43 1014.83 1015.17 1015.46 1015.70 1015.89 1016.04 1016.12 1016.14 1016.09 1015.99
1010.79 1010.16 1009.43 1008.68 1007.98 1007.38 1006.92 1006.64 1006.53 1006.58 1006.76 1007.02 1007.30 1007.56 1007.76 1007.89 1007.96 1008.00 1008.05 1008.14 1008.32 1008.60 1008.98 1009.43 1009.91 1010.36 1010.77 1011.09 1011.33 1011.50 1011.64 1011.78 1011.97 1012.21 1012.53 1012.90 1013.33 1013.78 1014.23 1014.66 1015.06 1015.42 1015.73 1015.98 1016.17 1016.29 1016.32 1016.28 1016.17
1010.82 1010.18 1009.46 1008.74 1008.07 1007.50 1007.07 1006.80 1006.68 1006.71 1006.84 1007.05 1007.26 1007.46 1007.60 1007.68 1007.69 1007.68 1007.68 1007.74 1007.89 1008.16 1008.55 1009.04 1009.58 1010.13 1010.63 1011.06 1011.39 1011.64 1011.81 1011.95 1012.09 1012.27 1012.51 1012.82 1013.19 1013.61 1014.06 1014.52 1014.96 1015.38 1015.75 1016.06 1016.29 1016.44 1016.50 1016.47 1016.36
1010.91 1010.28 1009.59 1008.91 1008.28 1007.75 1007.34 1007.07 1006.93 1006.92 1007.00 1007.14 1007.30 1007.44 1007.52 1007.55 1007.51 1007.46 1007.41 1007.42 1007.54 1007.78 1008.16 1008.66 1009.24 1009.85 1010.44 1010.96 1011.39 1011.70 1011.92 1012.07 1012.20 1012.34 1012.52 1012.77 1013.09 1013.48 1013.92 1014.39 1014.87 1015.32 1015.73 1016.07 1016.33 1016.51 1016.59 1016.57 1016.48
1010.98 1010.40 1009.77 1009.14 1008.57 1008.07 1007.68 1007.39 1007.22 1007.16 1007.19 1007.27 1007.37 1007.46 1007.51 1007.50 1007.44 1007.35 1007.27 1007.24 1007.31 1007.52 1007.86 1008.35 1008.94 1009.59 1010.23 1010.82 1011.32 1011.70 1011.97 1012.16 1012.29 1012.40 1012.55 1012.76 1013.05 1013.41 1013.83 1014.29 1014.77 1015.23 1015.64 1015.99 1016.26 1016.45 1016.54 1016.54 1016.47
1011.00 1010.49 1009.94 1009.39 1008.88 1008.43 1008.05 1007.75 1007.54 1007.42 1007.38 1007.39 1007.44 1007.49 1007.52 1007.51 1007.45 1007.36 1007.27 1007.22 1007.26 1007.42 1007.72 1008.17 1008.74 1009.39 1010.05 1010.68 1011.22 1011.66 1011.98 1012.20 1012.35 1012.47 1012.61 1012.79 1013.05 1013.38 1013.77 1014.21 1014.66 1015.09 1015.49 1015.82 1016.08 1016.25 1016.35 1016.38 1016.34
1010.95 1010.53 1010.09 1009.65 1009.22 1008.82 1008.45 1008.13 1007.87 1007.68 1007.56 1007.50 1007.50 1007.52 1007.54 1007.54 1007.51 1007.44 1007.37 1007.33 1007.35 1007.48 1007.74 1008.14 1008.67 1009.28 1009.93 1010.56 1011.12 1011.59 1011.94 1012.20 1012.37 1012.51 1012.65 1012.83 1013.06 1013.37 1013.72 1014.12 1014.53 1014.92 1015.27 1015.57 1015.80 1015.96 1016.07 1016.12 1016.12
1010.82 1010.53 1010.22 1009.91 1009.58 1009.25 1008.90 1008.55 1008.23 1007.96 1007.75 1007.61 1007.54 1007.52 1007.54 1007.56 1007.57 1007.55 1007.53 1007.52 1007.55 1007.67 1007.89 1008.24 1008.71 1009.26 1009.86 1010.46 1011.02 1011.49 1011.86 1012.14 1012.34 1012.49 1012.64 1012.82 1013.04 1013.32 1013.65 1014.01 1014.37 1014.72 1015.03 1015.28 1015.49 1015.64 1015.75 1015.82 1015.87
1010.67 1010.52 1010.37 1010.21 1010.00 1009.74 1009.41 1009.05 1008.66 1008.29 1007.97 1007.73 1007.57 1007.50 1007.50 1007.54 1007.59 1007.64 1007.67 1007.72 1007.79 1007.91 1008.11 1008.41 1008.82 1009.30 1009.84 1010.38 1010.89 1011.34 1011.71 1011.99 1012.20 1012.37 1012.53 1012.71 1012.93 1013.19 1013.50 1013.83 1014.16 1014.48 1014.75 1014.99 1015.18 1015.33 1015.45 1015.55 1015.63
1010.54 1010.55 1010.57 1010.55 1010.47 1010.30 1010.01 1009.63 1009.18 1008.70 1008.26 1007.90 1007.63 1007.49 1007.44 1007.47 1007.55 1007.65 1007.76 1007.86 1007.98 1008.12 1008.32 1008.59 1008.93 1009.35 1009.81 1010.28 1010.73 1011.13 1011.47 1011.73 1011.94 1012.11 1012.28 1012.46 1012.68 1012.94 1013.24 1013.56 1013.88 1014.18 1014.46 1014.69 1014.88 1015.05 1015.18 1015.31 1015.43
1010.49 1010.64 1010.82 1010.96 1011.01 1010.92 1010.68 1010.29 1009.78 1009.20 1008.64 1008.14 1007.75 1007.50 1007.38 1007.38 1007.46 1007.59 1007.75 1007.91 1008.07 1008.25 1008.45 1008.70 1009.00 1009.35 1009.73 1010.12 1010.50 1010.84 1011.13 1011.36 1011.55 1011.71 1011.87 1012.05 1012.27 1012.53 1012.84 1013.17 1013.50 1013.82 1014.12 1014.38 1014.59 1014.78 1014.94 1015.09 1015.23
1010.53 1010.81 1011.13 1011.41 1011.58 1011.58 1011.38 1010.99 1010.44 1009.78 1009.10 1008.46 1007.94 1007.56 1007.35 1007.28 1007.33 1007.47 1007.65 1007.84 1008.05 1008.25 1008.47 1008.71 1008.97 1009.26 1009.58 1009.89 1010.20 1010.47 1010.70 1010.89 1011.05 1011.19 1011.34 1011.51 1011.73 1012.00 1012.31 1012.66 1013.02 1013.38 1013.71 1014.01 1014.26 1014.48 1014.67 1014.83 1014.98
1010.67 1011.04 1011.46 1011.85 1012.12 1012.20 1012.06 1011.68 1011.10 1010.38 1009.61 1008.86 1008.21 1007.71 1007.38 1007.22 1007.21 1007.31 1007.48 1007.69 1007.91 1008.14 1008.37 1008.60 1008.83 1009.08 1009.34 1009.60 1009.83 1010.04 1010.22 1010.36 1010.48 1010.60 1010.72 1010.89 1011.10 1011.37 1011.69 1012.06 1012.45 1012.84 1013.21 1013.55 1013.85 1014.10 1014.31 1014.48 1014.63
1010.88 1011.30 1011.79 1012.25 1012.59 1012.74 1012.64 1012.29 1011.72 1010.97 1010.13 1009.30 1008.54 1007.93 1007.48 1007.22 1007.12 1007.17 1007.30 1007.49 1007.70 1007.93 1008.15 1008.38 1008.59 1008.81 1009.03 1009.24 1009.42 1009.58 1009.72 1009.82 1009.91 1010.00 1010.10 1010.25 1010.45 1010.71 1011.03 1011.40 1011.81 1012.22 1012.62 1012.99 1013.32 1013.59 1013.82 1014.00 1014.14
1011.15 1011.57 1012.07 1012.56 1012.93 1013.12 1013.07 1012.76 1012.21 1011.47 1010.62 1009.74 1008.91 1008.21 1007.66 1007.30 1007.11 1007.07 1007.14 1007.28 1007.46 1007.66 1007.87 1008.07 1008.27 1008.46 1008.65 1008.83 1008.98 1009.12 1009.22 1009.31 1009.38 1009.45 1009.54 1009.66 1009.84 1010.08 1010.38 1010.74 1011.13 1011.54 1011.95 1012.33 1012.66 1012.95 1013.18 1013.36 1013.50
1011.44 1011.83 1012.30 1012.76 1013.14 1013.34 1013.32 1013.05 1012.55 1011.84 1011.01 1010.13 1009.28 1008.53 1007.91 1007.47 1007.18 1007.05 1007.03 1007.10 1007.22 1007.37 1007.53 1007.71 1007.88 1008.04 1008.21 1008.36 1008.51 1008.63 1008.73 1008.82 1008.89 1008.96 1009.04 1009.15 1009.31 1009.52 1009.78 1010.10 1010.45 1010.83 1011.20 1011.56 1011.89 1012.18 1012.42 1012.61 1012.77
1011.75 1012.07 1012.48 1012.88 1013.22 1013.41 1013.40 1013.17 1012.72 1012.08 1011.30 1010.46 1009.62 1008.86 1008.20 1007.69 1007.32 1007.10 1006.99 1006.96 1007.00 1007.08 1007.18 1007.29 1007.42 1007.55 1007.69 1007.84 1007.97 1008.10 1008.22 1008.32 1008.41 1008.50 1008.59 1008.69 1008.83 1009.00 1009.22 1009.48 1009.77 1010.08 1010.41 1010.73 1011.03 1011.32 1011.57 1011.79 1011.98
Thickness
5812 5815 5816 5809 5801 5798 5792 5800 5807 5806 5806 5813 5814 5810 5803 5798 5792 5783 5802 5811 5811 5809 5806 5800 5796 5795 5794 5794 5793 5792 5791 5790 5788 5787 5786 5785 5784 5784 5783 5782 5781 5780 5779 5778 5778 5776 5775 5774 5772
5821 5819 5813 5810 5803 5790 5790 5804 5805 5806 5812 5817 5815 5812 5806 5800 5804 5803 5806 5809 5810 5809 5807 5802 5796 5795 5794 5793 5792 5791 5790 5789 5788 5786 5785 5785 5784 5783 5783 5782 5781 5780 5779 5778 5777 5776 5775 5773 5772
5823 5821 5813 5812 5803 5794 5793 5807 5808 5812 5818 5816 5811 5812 5806 5800 5804 5806 5809 5810 5811 5809 5807 5800 5796 5794 5793 5792 5791 5790 5790 5788 5787 5786 5786 5785 5784 5783 5783 5782 5781 5780 5779 5778 5777 5775 5774 5773 5772
5824 5820 5818 5811 5800 5806 5809 5814 5816 5813 5815 5817 5813 5806 5806 5808 5810 5811 5811 5812 5811 5809 5807 5800 5795 5793 5793 5792 5791 5790 5789 5788 5787 5786 5785 5784 5784 5783 5783 5782 5781 5780 5779 5778 5777 5775 5774 5773 5772
5828 5821 5813 5809 5807 5814 5821 5822 5821 5814 5811 5814 5814 5803 5800 5809 5814 5814 5812 5812 5811 5810 5807 5802 5795 5793 5792 5791 5790 5789 5788 5787 5786 5785 5785 5784 5784 5783 5783 5783 5782 5781 5779 5778 5777 5776 5775 5774 5772
5826 5824 5811 5805 5808 5816 5823 5826 5822 5817 5814 5815 5813 5805 5801 5810 5811 5812 5813 5812 5813 5810 5808 5802 5795 5794 5792 5791 5790 5789 5788 5786 5785 5785 5784 5784 5784 5783 5783 5782 5782 5781 5780 5779 5778 5776 5775 5774 5772
5823 5822 5812 5813 5811 5814 5820 5828 5822 5817 5813 5816 5819 5807 5803 5808 5811 5812 5812 5813 5812 5811 5808 5806 5802 5797 5794 5792 5790 5789 5788 5786 5785 5785 5784 5784 5783 5783 5783 5782 5782 5781 5781 5779 5778 5777 5775 5774 5773
5836 5828 5820 5820 5815 5814 5827 5829 5828 5823 5817 5825 5824 5808 5802 5808 5813 5813 5812 5811 5810 5809 5808 5807 5804 5802 5800 5797 5792 5790 5788 5787 5786 5785 5784 5784 5784 5784 5783 5783 5782 5781 5780 5780 5779 5778 5776 5775 5774
5841 5826 5819 5822 5820 5820 5830 5827 5829 5833 5825 5822 5823 5820 5818 5816 5814 5810 5807 5806 5805 5806 5807 5807 5805 5803 5801 5800 5795 5792 5789 5787 5787 5786 5785 5785 5787 5787 5786 5784 5782 5781 5780 5779 5779 5778 5777 5776 5775
5835 5823 5825 5834 5837 5833 5832 5830 5830 5826 5818 5816 5816 5817 5818 5815 5811 5807 5804 5803 5803 5803 5805 5807 5805 5803 5802 5800 5796 5795 5793 5790 5789 5788 5787 5787 5786 5786 5786 5783 5781 5781 5780 5780 5779 5779 5778 5778 5780
5837 5828 5836 5841 5845 5842 5834 5832 5835 5826 5816 5818 5816 5814 5814 5812 5810 5807 5806 5806 5804 5804 5805 5806 5804 5802 5802 5800 5798 5796 5795 5792 5790 5789 5787 5786 5787 5787 5786 5785 5783 5782 5781 5782 5781 5782 5782 5782 5781
5838 5840 5843 5843 5846 5843 5837 5834 5831 5828 5825 5832 5829 5824 5817 5812 5810 5809 5806 5806 5806 5804 5804 5805 5804 5801 5799 5799 5798 5796 5795 5793 5792 5789 5787 5787 5787 5787 5786 5785 5785 5784 5783 5782 5783 5783 5781 5781 5780
5839 5841 5846 5849 5847 5845 5840 5834 5832 5830 5835 5836 5831 5824 5818 5815 5813 5813 5811 5809 5806 5803 5803 5804 5802 5800 5798 5796 5795 5796 5794 5794 5791 5789 5788 5787 5787 5786 5786 5784 5783 5784 5784 5784 5783 5783 5780 5780 5779
5845 5845 5847 5849 5847 5844 5837 5835 5832 5830 5837 5831 5825 5821 5820 5817 5814 5812 5810 5807 5805 5804 5804 5804 5801 5799 5796 5794 5793 5793 5793 5791 5791 5790 5788 5787 5787 5786 5785 5784 5783 5784 5784 5783 5782 5781 5780 5780 5779
5850 5842 5844 5847 5846 5845 5841 5827 5830 5836 5837 5828 5824 5822 5819 5818 5815 5812 5810 5807 5807 5805 5805 5802 5801 5799 5796 5794 5793 5793 5792 5791 5790 5789 5787 5786 5786 5785 5785 5785 5784 5784 5784 5782 5782 5781 5780 5780 5779
5847 5840 5834 5842 5846 5845 5836 5819 5833 5841 5835 5827 5825 5821 5818 5817 5815 5814 5813 5810 5809 5807 5803 5802 5802 5799 5795 5793 5791 5792 5791 5790 5789 5788 5787 5785 5784 5784 5784 5784 5784 5783 5783 5783 5782 5780 5780 5778 5778
5838 5832 5831 5835 5847 5845 5837 5825 5834 5841 5836 5827 5825 5822 5819 5817 5815 5815 5815 5813 5810 5807 5804 5801 5800 5798 5796 5794 5791 5790 5788 5787 5788 5787 5787 5785 5784 5784 5784 5783 5782 5782 5783 5782 5782 5780 5778 5776 5775
5829 5832 5831 5831 5843 5842 5836 5833 5838 5840 5836 5830 5827 5824 5820 5818 5817 5817 5816 5815 5812 5809 5805 5802 5800 5797 5795 5793 5791 5789 5788 5787 5787 5786 5784 5783 5783 5783 5783 5783 5781 5782 5781 5779 5778 5776 5775 5774 5773
5838 5833 5830 5834 5846 5840 5834 5834 5836 5838 5834 5830 5827 5824 5821 5819 5822 5821 5818 5815 5812 5809 5805 5802 5799 5797 5794 5792 5789 5787 5786 5786 5786 5786 5784 5783 5782 5782 5781 5782 5779 5779 5779 5776 5776 5775 5773 5772 5772
5836 5830 5830 5834 5844 5838 5834 5834 5840 5839 5834 5833 5829 5826 5824 5821 5820 5818 5817 5814 5812 5808 5806 5803 5800 5797 5795 5793 5790 5788 5787 5787 5787 5786 5784 5783 5781 5781 5782 5778 5779 5778 5776 5773 5772 5770 5770 5770 5770
5834 5832 5831 5829 5835 5841 5833 5829 5833 5837 5837 5835 5833 5831 5828 5824 5820 5818 5816 5814 5813 5809 5807 5805 5801 5798 5795 5793 5791 5788 5785 5784 5784 5783 5782 5781 5780 5779 5778 5777 5777 5776 5775 5773 5770 5769 5766 5765 5766
5827 5840 5837 5831 5825 5826 5828 5816 5829 5834 5831 5830 5830 5830 5829 5827 5824 5822 5819 5816 5814 5813 5811 5806 5802 5798 5795 5792 5790 5786 5783 5780 5781 5781 5781 5780 5778 5778 5777 5775 5773 5773 5773 5770 5769 5769 5766 5762 5762
5834 5842 5837 5833 5828 5826 5829 5820 5828 5833 5824 5828 5830 5831 5831 5829 5827 5823 5821 5819 5817 5815 5812 5807 5802 5797 5795 5792 5789 5785 5783 5782 5781 5779 5777 5776 5777 5775 5774 5772 5771 5769 5769 5767 5765 5764 5762 5761 5759
5840 5835 5832 5832 5831 5812 5823 5817 5817 5830 5828 5830 5833 5832 5831 5829 5827 5824 5823 5820 5817 5816 5812 5808 5801 5796 5793 5790 5788 5784 5780 5778 5776 5774 5774 5774 5774 5773 5771 5770 5768 5767 5766 5763 5762 5760 5758 5757 5755
5834 5823 5809 5806 5808 5810 5827 5817 5818 5835 5838 5835 5833 5832 5832 5829 5825 5821 5819 5816 5814 5811 5809 5805 5800 5795 5793 5789 5786 5783 5779 5777 5773 5773 5772 5770 5770 5769 5767 5767 5764 5763 5761 5760 5758 5756 5755 5753 5751
5829 5827 5804 5791 5798 5813 5819 5811 5825 5838 5839 5838 5836 5833 5830 5827 5825 5820 5817 5815 5813 5809 5807 5803 5798 5794 5791 5788 5784 5782 5780 5778 5776 5772 5771 5768 5767 5767 5764 5762 5761 5759 5758 5757 5754 5754 5752 5750 5748
5823 5824 5834 5817 5811 5804 5815 5819 5826 5833 5830 5830 5830 5828 5824 5823 5822 5818 5816 5814 5811 5808 5805 5802 5796 5791 5788 5785 5782 5779 5777 5775 5773 5771 5768 5766 5764 5763 5760 5758 5756 5755 5753 5752 5750 5748 5747 5746 5745
5831 5830 5820 5809 5788 5788 5803 5809 5814 5817 5818 5822 5822 5821 5821 5820 5819 5816 5814 5811 5809 5807 5804 5801 5796 5791 5787 5784 5781 5779 5775 5772 5769 5767 5764 5762 5760 5758 5756 5754 5752 5750 5749 5748 5746 5745 5743 5740 5740
5815 5816 5814 5812 5805 5792 5789 5803 5824 5820 5821 5819 5819 5820 5818 5816 5815 5812 5811 5810 5807 5804 5801 5796 5793 5788 5784 5781 5778 5775 5772 5769 5766 5763 5761 5758 5756 5753 5751 5750 5748 5746 5744 5743 5741 5740 5738 5736 5734
5820 5814 5812 5796 5791 5796 5794 5799 5827 5824 5824 5820 5818 5816 5815 5813 5813 5811 5808 5805 5801 5798 5796 5792 5789 5786 5782 5778 5774 5771 5768 5766 5763 5760 5757 5755 5752 5750 5748 5746 5743 5741 5739 5738 5736 5734 5733 5731 5728